Regional Weather Roundup
Issued by NWS

Home | Current Version | Previous Version | Text Only | Print | Product List | Glossary Off
Versions: 1 2 3 4 5 6 7 8 9 10 11 12 13 14 15 16 17 18 19 20 21 22 23 24 25 26 27 28 29 30 31 32 33 34 35 36 37 38 39 40 41 42 43 44 45 46 47 48 49 50

000
ASUS43 KBIS 230702
RWRND

NORTH DAKOTA REGIONAL WEATHER ROUNDUP
NATIONAL WEATHER SERVICE BISMARCK ND
200 AM CDT WED AUG 23 2017

NOTE: "FAIR" INDICATES FEW OR NO CLOUDS BELOW 12,000 FEET WITH NO
SIGNIFICANT WEATHER AND/OR OBSTRUCTIONS TO VISIBILITY.


NDZ001>003-009>011-017-230800-
NORTHWEST NORTH DAKOTA

CITY           SKY/WX    TMP DP  RH WIND       PRES   REMARKS
WILLISTON      CLEAR     63  41  44 S5        30.07S
MINOT          CLOUDY    59  45  59 SE3       30.07F
MINOT AFB      CLOUDY    54  44  69 S3        30.06S
$$

NDZ018>021-031>035-040>046-230800-
SOUTHWEST NORTH DAKOTA

CITY           SKY/WX    TMP DP  RH WIND       PRES   REMARKS
BISMARCK       CLEAR     50  47  89 E3        30.12F
DICKINSON      CLEAR     54  41  61 S9        30.11F
GARRISON         N/A     57  50  77 E3        30.09F
HETTINGER ARPT CLEAR     56  44  64 E8        30.14S
$$

NDZ004>008-012>016-024-026-027-054-230800-
NORTHEAST NORTH DAKOTA

CITY           SKY/WX    TMP DP  RH WIND       PRES   REMARKS
GRAND FORKS    CLEAR     49  47  93 NW3       30.08F
GRND FRKS AFB  CLEAR     45  43  93 SW3       30.09S
DEVILS LAKE    CLEAR     52  47  83 E5        30.10F
$$

NDZ022-023-025-028>030-036>039-047>053-230800-
SOUTHEAST NORTH DAKOTA

CITY           SKY/WX    TMP DP  RH WIND       PRES   REMARKS
FARGO          CLEAR     51  46  83 CALM      30.09S
JAMESTOWN      CLEAR     49  46  90 CALM      30.11S
$$




USA.gov is the U.S. government's official web portal to all federal, state and local government web resources and services.